sat.trackr.live / text

‹ back to catalog

HULIANWANG DIGUI-155

NORAD 68129 · 2026-047A

PAYLOAD ACTIVE UNKNOWN

§ Identity

Operator
Country
PRC
Launch date
2026-03-12
Launch site
WSC
Launch vehicle
Mass (kg)
RCS (m²)

External: N2YO · Heavens-Above · Gunter

§ Orbital elements

Epoch: 2026-09-20T04:20:07.996704Z

Period
108.33 min
Inclination
50.0025°
Eccentricity
0.0001238
Mean motion
13.29329726 rev/d
Perigee alt
1,148.4 km
Apogee alt
1,150.2 km
Semi-major
7,527.4 km
B*
2.8914e-5
RAAN
75.6794°
Arg perigee
86.6968°
Mean anomaly
273.4045°
Rev number
2,570

§ Raw data

HULIANWANG DIGUI-1551 68129U 26047A   26263.18064811 -.00000111  00000+0  28914-4 0  99942 68129  50.0025  75.6794 0001238  86.6968 273.4045 13.29329726 25708

JSON: /api/v1/satellites/68129 · /tle

For live sub-satellite position, see the globe view (requires WebGL).

§ Visibility from observer

Set your observer location to see the next 7 days of passes ≥ 10°. The values pass through the URL so the page stays shareable.

No JS? Fill the form by hand. The geolocation button needs JavaScript.